This demonstration page uses our WeatherBlox Daily Observations layout. Learn more.

Left ArrowRight Arrow

34.74481, -87.66753

Hourly Observations for May 6, 2022

Temp ( °F °C ) Dew Point ( °F °C ) Humidity (%) Winds ( mph kmh ) Pressure ( in mb ) Visibility ( mi km ) Precip ( " mm )
12:53 am 00:53 Partly Cloudy 66 18.9 64 17.8 93 93 SE 7 11 29.78 1008 10 16 0.00 0.00
1:53 am 01:53 Clear 66 18.9 63 17.2 90 90 SSE 9 15 29.71 1006 10 16 0.00 0.00
2:53 am 02:53 Clear 66 18.9 63 17.2 90 90 SE 6 9 29.70 1006 10 16 0.00 0.00
3:53 am 03:53 Clear 65 18.3 63 17.2 93 93 SSE 7 11 29.69 1005 10 16 0.00 0.00
4:53 am 04:53 Mostly Cloudy 65 18.3 63 17.2 93 93 WNW 5 7 29.72 1007 10 16 0.00 0.00
5:13 am 05:13 Cloudy 65 18.3 63 17.2 93 93 WNW 5 7 29.73 1007 10 16 0.00 0.00
5:53 am 05:53 Cloudy 65 18.3 62 16.7 90 90 NW 3 6 29.71 1006 10 16 0.00 0.00
6:33 am 06:33 Cloudy 65 18.3 63 17.2 93 93 Calm 29.71 1006 10 16 0.00 0.00
6:41 am 06:41 Mostly Cloudy 65 18.3 63 17.2 93 93 ESE 3 6 29.70 1006 10 16 0.00 0.00
6:53 am 06:53 Mostly Cloudy 65 18.3 63 17.2 93 93 SE 5 7 29.69 1005 10 16 0.00 0.00
7:46 am 07:46 Mostly Cloudy 68 20 64 17.8 87 87 SSW 13 20 29.71 1006 10 16 0.00 0.00
7:53 am 07:53 Cloudy 69 20.6 64 17.8 84 84 SW 14 22 29.70 1006 10 16 0.00 0.00
8:53 am 08:53 Cloudy 70 21.1 63 17.2 79 79 SSW 14 22 29.68 1005 10 16 0.00 0.00
9:34 am 09:34 Cloudy 69 20.6 63 17.2 81 81 SW 16 26 29.69 1005 10 16 0.00 0.00
9:53 am 09:53 Cloudy with Light Rain 69 20.6 63 17.2 81 81 SW 18 30 29.69 1005 10 16 0.00 0.00
10:18 am 10:18 Cloudy 69 20.6 61 16.1 76 76 WSW 20 31 29.70 1006 10 16 0.00 0.00
10:53 am 10:53 Mostly Sunny 71 21.7 61 16.1 71 71 SW 16 26 29.65 1004 10 16 0.00 0.00
11:53 am 11:53 Windy with Storms Likely 69 20.6 59 15 70 70 W 20 31 29.65 1004 10 16 0.00 0.00
12:29 pm 12:29 Cloudy with Nearby Thunderstorms 64 17.8 59 15 84 84 W 16 26 29.67 1005 9 14 0.07 1.78
12:42 pm 12:42 Mostly Cloudy 69 20.6 62 16.7 78 78 W 17 28 29.67 1005 10 16 0.07 1.78
12:53 pm 12:53 Mostly Cloudy with Rain 66 18.9 60 15.6 81 81 W 28 44 29.68 1005 6 10 0.08 2.03
1:53 pm 13:53 Mostly Cloudy 70 21.1 58 14.4 66 66 W 28 44 29.68 1005 10 16 0.01 0.25
2:53 pm 14:53 Cloudy 69 20.6 57 13.9 66 66 W 22 35 29.69 1006 10 16 0.00 0.00
3:53 pm 15:53 Cloudy 71 21.7 59 15 66 66 W 16 26 29.68 1005 10 16 0.00 0.00
4:53 pm 16:53 Mostly Cloudy 70 21.1 58 14.4 66 66 WNW 17 28 29.69 1006 10 16 0.00 0.00
5:53 pm 17:53 Cloudy 68 20 56 13.3 65 65 NW 9 15 29.71 1006 10 16 0.00 0.00
6:53 pm 18:53 Cloudy 67 19.4 58 14.4 73 73 WNW 12 19 29.72 1006 10 16 0.00 0.00
7:53 pm 19:53 Mostly Cloudy 66 18.9 59 15 78 78 WSW 7 11 29.73 1007 10 16 0.00 0.00
8:53 pm 20:53 Mostly Cloudy 63 17.2 61 16.1 93 93 W 10 17 29.75 1007 10 16 0.05 1.27
9:38 pm 21:38 Cloudy 64 17.8 61 16.1 90 90 NW 7 11 29.76 1008 10 16 0.00 0.00
9:53 pm 21:53 Cloudy 64 17.8 59 15 84 84 NW 10 17 29.76 1008 10 16 0.00 0.00
10:07 pm 22:07 Mostly Cloudy 63 17.2 57 13.9 81 81 NW 14 22 29.77 1008 10 16 0.00 0.00
10:53 pm 22:53 Partly Cloudy 61 16.1 55 12.8 81 81 WNW 12 19 29.77 1008 10 16 0.00 0.00
11:53 pm 23:53 Mostly Cloudy 59 15 55 12.8 87 87 WNW 9 15 29.77 1008 10 16 0.00 0.00

Powered by AerisWeather